User: anonymous   Login
Location: Unspecified
(0.0000°N, 0.0000°E)
Time: 06:22:06
(UTC+00:00)
Language:

ANS - Orbit

View from above orbital plane
View from above orbital plane
View from above satellite
View from above satellite

Ground track
Ground track

The orbit is defined by the following mean orbital elements,

1 07427U 74070  A 77164.43856214  .05755034 +00000-0 +00000-0 0 06958
2 07427 097.9353 227.2513 0014208 347.8335 015.1564 16.35793144153136
Epoch (UTC): 13 June 1977 10:31:31
Eccentricity: 0.0014208
inclination: 97.9353°
perigee height: 168 km
apogee height: 186 km
right ascension of ascending node: 227.2513°
argument of perigee: 347.8335°
revolutions per day: 16.35793144
mean anomaly at epoch: 15.1564°

The dashed part of the orbit path shows where the satellite is in the earth's shadow,  

DLR